Meteo pe oră la Czyzyki

Astăzi, 23 Aprilie, Vineri

Timp Temperatura Precipitaţii Vânt Presiune Umiditate
00:00 0°C° 0 mm 4 m/s 744 mmHg 81%
01:00 0°C° 0 mm 4 m/s 744 mmHg 80%
02:00 0°C° 0 mm 4 m/s 744 mmHg 79%
03:00 0°C° 0 mm 4 m/s 744 mmHg 80%
04:00 -1°C° 0 mm 4 m/s 744 mmHg 81%
05:00 -1°C° 0 mm 4 m/s 744 mmHg 82%
06:00 -1°C° 0 mm 5 m/s 745 mmHg 79%
07:00 0°C° 0 mm 5 m/s 745 mmHg 76%
08:00 +1°C° 0 mm 5 m/s 745 mmHg 73%
09:00 +2°C° 0.1 mm 6 m/s 745 mmHg 67%
10:00 +3°C° 0.1 mm 6 m/s 745 mmHg 61%
11:00 +5°C° 0.1 mm 6 m/s 745 mmHg 54%
12:00 +5°C° 0.2 mm 7 m/s 745 mmHg 54%
13:00 +5°C° 0.2 mm 7 m/s 745 mmHg 54%
14:00 +5°C° 0.2 mm 8 m/s 746 mmHg 54%
15:00 +5°C° 0.2 mm 7 m/s 746 mmHg 52%
16:00 +5°C° 0.2 mm 6 m/s 746 mmHg 49%
17:00 +5°C° 0.2 mm 6 m/s 746 mmHg 46%
18:00 +5°C° 0 mm 5 m/s 746 mmHg 49%
19:00 +2°C° 0 mm 5 m/s 746 mmHg 51%
20:00 +1°C° 0 mm 4 m/s 747 mmHg 54%
21:00 0°C° 0 mm 4 m/s 747 mmHg 58%
22:00 -1°C° 0 mm 4 m/s 747 mmHg 63%
23:00 -1°C° 0 mm 3 m/s 747 mmHg 67%

Mâine, 24 Aprilie, Sâmbătă

Timp Temperatura Precipitaţii Vânt Presiune Umiditate
00:00 -1°C° 0 mm 3 m/s 747 mmHg 69%
01:00 -2°C° 0 mm 3 m/s 747 mmHg 71%
02:00 -2°C° 0 mm 3 m/s 747 mmHg 73%
03:00 -2°C° 0 mm 3 m/s 747 mmHg 74%
04:00 -2°C° 0 mm 3 m/s 748 mmHg 74%
05:00 -2°C° 0 mm 3 m/s 748 mmHg 74%
06:00 -1°C° 0 mm 3 m/s 748 mmHg 68%
07:00 +1°C° 0 mm 3 m/s 748 mmHg 61%
08:00 +1°C° 0 mm 4 m/s 748 mmHg 54%
09:00 +4°C° 0 mm 4 m/s 748 mmHg 48%
10:00 +5°C° 0 mm 4 m/s 748 mmHg 41%
11:00 +6°C° 0 mm 5 m/s 748 mmHg 35%
12:00 +6°C° 0 mm 5 m/s 748 mmHg 36%
13:00 +6°C° 0 mm 5 m/s 748 mmHg 37%
14:00 +7°C° 0 mm 5 m/s 747 mmHg 39%
15:00 +6°C° 0.1 mm 5 m/s 747 mmHg 43%
16:00 +6°C° 0.1 mm 5 m/s 747 mmHg 48%
17:00 +6°C° 0.1 mm 5 m/s 747 mmHg 52%
18:00 +4°C° 0.1 mm 4 m/s 747 mmHg 59%
19:00 +3°C° 0.1 mm 3 m/s 747 mmHg 65%
20:00 +3°C° 0.1 mm 2 m/s 747 mmHg 71%
21:00 +2°C° 0.5 mm 2 m/s 747 mmHg 78%
22:00 +2°C° 0.5 mm 2 m/s 747 mmHg 85%
23:00 +1°C° 0.5 mm 2 m/s 747 mmHg 92%

Poimâine, 25 Aprilie, Duminică

Timp Temperatura Precipitaţii Vânt Presiune Umiditate
00:00 -1°C° 0.1 mm 3 m/s 747 mmHg 90%
01:00 -1°C° 0.1 mm 3 m/s 747 mmHg 88%
02:00 -2°C° 0.1 mm 3 m/s 747 mmHg 87%
03:00 -4°C° 0 mm 3 m/s 747 mmHg 88%
04:00 -5°C° 0 mm 3 m/s 747 mmHg 90%
05:00 -5°C° 0 mm 3 m/s 747 mmHg 92%
06:00 -4°C° 0 mm 3 m/s 747 mmHg 86%
07:00 -2°C° 0 mm 4 m/s 748 mmHg 80%
08:00 -1°C° 0 mm 4 m/s 748 mmHg 74%
09:00 +1°C° 0.1 mm 4 m/s 748 mmHg 68%
10:00 +2°C° 0.1 mm 5 m/s 747 mmHg 61%
11:00 +3°C° 0.1 mm 5 m/s 747 mmHg 55%
12:00 +5°C° 0.3 mm 5 m/s 747 mmHg 54%
13:00 +4°C° 0.3 mm 6 m/s 747 mmHg 53%
14:00 +4°C° 0.3 mm 6 m/s 747 mmHg 52%
15:00 +5°C° 0.2 mm 5 m/s 747 mmHg 55%
16:00 +5°C° 0.2 mm 5 m/s 746 mmHg 58%
17:00 +3°C° 0.2 mm 5 m/s 746 mmHg 62%
18:00 +3°C° 0.3 mm 4 m/s 746 mmHg 68%
19:00 +2°C° 0.3 mm 3 m/s 746 mmHg 75%
20:00 +2°C° 0.3 mm 2 m/s 747 mmHg 82%
21:00 +1°C° 0 mm 2 m/s 747 mmHg 84%
22:00 +1°C° 0 mm 2 m/s 747 mmHg 85%
23:00 -1°C° 0 mm 2 m/s 747 mmHg 87%

26 Aprilie, Luni

Timp Temperatura Precipitaţii Vânt Presiune Umiditate
00:00 -2°C° 0 mm 2 m/s 747 mmHg 88%
01:00 -2°C° 0 mm 3 m/s 747 mmHg 89%
02:00 -4°C° 0 mm 3 m/s 747 mmHg 91%
03:00 -4°C° 0 mm 3 m/s 746 mmHg 91%
04:00 -5°C° 0 mm 3 m/s 746 mmHg 91%
05:00 -5°C° 0 mm 3 m/s 746 mmHg 91%
06:00 -2°C° 0 mm 3 m/s 746 mmHg 84%
07:00 -2°C° 0 mm 4 m/s 746 mmHg 78%
08:00 0°C° 0 mm 4 m/s 746 mmHg 71%
09:00 +1°C° 0.1 mm 5 m/s 746 mmHg 64%
10:00 +2°C° 0.1 mm 5 m/s 746 mmHg 57%
11:00 +3°C° 0.1 mm 5 m/s 746 mmHg 50%
12:00 +5°C° 0.1 mm 5 m/s 745 mmHg 47%
13:00 +5°C° 0.1 mm 5 m/s 745 mmHg 45%
14:00 +6°C° 0.1 mm 5 m/s 745 mmHg 42%
15:00 +6°C° 0.1 mm 5 m/s 744 mmHg 46%
16:00 +5°C° 0.1 mm 5 m/s 744 mmHg 50%
17:00 +5°C° 0.1 mm 4 m/s 744 mmHg 54%
18:00 +4°C° 0.2 mm 4 m/s 744 mmHg 62%
19:00 +2°C° 0.2 mm 3 m/s 744 mmHg 71%
20:00 +2°C° 0.2 mm 2 m/s 744 mmHg 79%
21:00 +1°C° 0 mm 2 m/s 744 mmHg 81%
22:00 +1°C° 0 mm 2 m/s 744 mmHg 82%
23:00 -1°C° 0 mm 2 m/s 744 mmHg 84%

27 Aprilie, Marţi

Timp Temperatura Precipitaţii Vânt Presiune Umiditate
00:00 -1°C° 0 mm 2 m/s 744 mmHg 84%
01:00 -2°C° 0 mm 2 m/s 744 mmHg 84%
02:00 -2°C° 0 mm 3 m/s 744 mmHg 84%
03:00 -2°C° 0 mm 3 m/s 744 mmHg 84%
04:00 -4°C° 0 mm 3 m/s 744 mmHg 84%
05:00 -4°C° 0 mm 3 m/s 744 mmHg 84%
06:00 -1°C° 0 mm 3 m/s 744 mmHg 76%
07:00 0°C° 0 mm 4 m/s 744 mmHg 69%
08:00 +1°C° 0 mm 4 m/s 744 mmHg 61%
09:00 +4°C° 0 mm 4 m/s 744 mmHg 58%
10:00 +5°C° 0 mm 4 m/s 744 mmHg 54%
11:00 +7°C° 0 mm 4 m/s 744 mmHg 50%
12:00 +7°C° 0 mm 4 m/s 744 mmHg 50%
13:00 +8°C° 0 mm 3 m/s 744 mmHg 51%
14:00 +9°C° 0 mm 3 m/s 743 mmHg 51%
15:00 +9°C° 0 mm 2 m/s 743 mmHg 51%
16:00 +9°C° 0 mm 2 m/s 743 mmHg 52%
17:00 +10°C° 0 mm 1 m/s 743 mmHg 53%
18:00 +8°C° 0 mm 1 m/s 743 mmHg 59%
19:00 +6°C° 0 mm 2 m/s 743 mmHg 65%
20:00 +5°C° 0 mm 2 m/s 743 mmHg 71%
21:00 +4°C° 0 mm 2 m/s 743 mmHg 72%
22:00 +4°C° 0 mm 2 m/s 743 mmHg 74%
23:00 +3°C° 0 mm 3 m/s 743 mmHg 76%

28 Aprilie, Miercuri

Timp Temperatura Precipitaţii Vânt Presiune Umiditate
00:00 +3°C° 0 mm 3 m/s 742 mmHg 76%
01:00 +2°C° 0 mm 3 m/s 742 mmHg 77%
02:00 +2°C° 0 mm 3 m/s 742 mmHg 77%
03:00 +2°C° 0 mm 3 m/s 741 mmHg 77%
04:00 +2°C° 0 mm 3 m/s 741 mmHg 77%
05:00 +2°C° 0 mm 3 m/s 740 mmHg 77%
06:00 +3°C° 0 mm 3 m/s 740 mmHg 74%
07:00 +4°C° 0 mm 4 m/s 740 mmHg 71%
08:00 +5°C° 0 mm 4 m/s 739 mmHg 68%
09:00 +5°C° 0.4 mm 4 m/s 739 mmHg 74%
10:00 +5°C° 0.4 mm 4 m/s 738 mmHg 79%
11:00 +5°C° 0.4 mm 4 m/s 738 mmHg 84%
12:00 +4°C° 0.9 mm 4 m/s 738 mmHg 87%
13:00 +4°C° 0.9 mm 3 m/s 737 mmHg 91%
14:00 +5°C° 0.9 mm 2 m/s 737 mmHg 94%
15:00 +5°C° 0.6 mm 2 m/s 736 mmHg 95%
16:00 +6°C° 0.6 mm 1 m/s 736 mmHg 96%
17:00 +7°C° 0.6 mm 1 m/s 735 mmHg 98%
18:00 +6°C° 1.1 mm 1 m/s 735 mmHg 98%
19:00 +5°C° 1.1 mm 2 m/s 735 mmHg 98%
20:00 +5°C° 1.1 mm 2 m/s 735 mmHg 98%
21:00 +5°C° 0.1 mm 2 m/s 735 mmHg 98%
22:00 +4°C° 0.1 mm 3 m/s 735 mmHg 97%
23:00 +4°C° 0.1 mm 3 m/s 735 mmHg 96%
Arată mai mult

Formular de consimțământ

Meteoprog și furnizorii noștri de servicii pot stoca și accesa date personale, precum cookies, identificatori de dispozitiv sau alte tehnologii similare pe dispozitivul dumneavoastră și procesa astfel de date pentru a personaliza conținutul și reclamele, dar și pentru a oferi caracteristici de social media și pentru a analiza traficul.

  • Stocarea și/sau accesarea informațiilor pe dispozitivul dumneavoastră

    Cookies, identificatori de dispozitiv sau alte informații pot fi stocate sau accesate pe dispozitiv în scopurile indicate mai sus.

  • Reclame și conținut personalizat, evaluarea reclamelor și a conținutului, informații despre audiențe și dezvoltarea produselor

    Reclamele și conținutul pot fi personalizate pe baza unui profil. Pot fi adăugate date suplimentare pentru a personaliza mai bine reclamele și conținutul. Performanța reclamelor și conținutului poate fi măsurată. Pot fi obținute informații despre utilizatorii care au văzut reclamele și conținutul. Aceste date pot fi utilizate pentru a dezvolta sau îmbunătăți experiența utilizatorilor, sistemele și software-ul.

Dând clic pe ‘Sunt de acord’, permiteți utilizarea cookie-urilor menționate, a identificatorilor de dispozitiv, balizelor web sau altor tehnologii similare. Setările pot fi modificate din browser-ul dispozitivului dumneavoastră.

În anumite scopuri, interesele legitime pot prima asupra consimțământului. Puteți citi mai multe informații în acest sens în Politica privind Confidențialitatea Datelor și Cookie.